Terminal Aerodrome Forecast
Issued by NWS Aberdeen, SD

Home | Current Version | Previous Version | Text Only | Print | Product List | Glossary On
Versions: 1 2 3 4 5 6 7 8 9 10 11 12 13 14 15 16 17 18 19 20 21 22 23 24 25 26 27 28 29 30 31 32 33 34 35 36 37 38 39 40 41 42
000
FTAK31 PAFA 301409 AAB
TAFABR
TAF AMD
PABR 301409Z 3014/3112 12018KT 1/4SM FZFG VV002
     FM301600 11015KT 1SM BR OVC002
     FM302100 11008KT P6SM SCT010
     FM310900 02013KT 1SM BR BKN004=

USA.gov is the U.S. government's official web portal to all federal, state and local government web resources and services.